| time (UTC) | temp F | wind direction | speed MPH | gust MPH | rain 1hr in | rain 24hr in | rain mn in | humidity % | barometer mb |
| 20260506091420 | 55 | 36 | 0.0 | 3.0 | 0.00 | 0.01 | 0.01 | 80 | 1007.1 |
| 20260506090917 | 55 | 94 | 1.0 | 3.0 | 0.00 | 0.01 | 0.01 | 77 | 1007.0 |
| 20260506090415 | 55 | 243 | 0.0 | 1.0 | 0.07 | 0.01 | 0.01 | 77 | 1006.9 |
| 20260506085911 | 56 | 183 | 1.0 | 2.0 | 0.07 | 0.01 | 0.01 | 76 | 1006.9 |
| 20260506085408 | 57 | 85 | 0.0 | 1.0 | 0.00 | 0.00 | 0.00 | 73 | 1006.8 |
| 20260506084904 | 57 | 34 | 1.0 | 2.0 | 0.00 | 0.00 | 0.00 | 70 | 1007.0 |
| 20260506084401 | 57 | 309 | 0.0 | 2.0 | 0.00 | 0.00 | 0.00 | 71 | 1007.2 |
| 20260506083857 | 57 | 177 | 0.0 | 1.0 | 0.00 | 0.00 | 0.00 | 71 | 1007.3 |
| 20260506083355 | 58 | 210 | 0.0 | 1.0 | 0.00 | 0.00 | 0.00 | 69 | 1007.1 |
| 20260506082852 | 58 | 291 | 0.0 | 0.0 | 0.00 | 0.00 | 0.00 | 68 | 1007.2 |
| 20260506082349 | 58 | 340 | 1.0 | 4.0 | 0.00 | 0.00 | 0.00 | 67 | 1007.3 |
| 20260506081844 | 58 | 311 | 1.0 | 2.0 | 0.00 | 0.00 | 0.00 | 67 | 1007.3 |
| 20260506081343 | 59 | 186 | 0.0 | 3.0 | 0.00 | 0.00 | 0.00 | 63 | 1007.6 |
| 20260506080840 | 60 | 37 | 2.0 | 6.0 | 0.00 | 0.00 | 0.00 | 61 | 1007.6 |
| 20260506080337 | 60 | 69 | 3.0 | 3.0 | 0.00 | 0.00 | 0.00 | 59 | 1007.6 |
| 20260506073321 | 62 | 35 | 1.0 | 4.0 | 0.00 | 0.00 | 0.00 | 53 | 1006.9 |
| 20260506072818 | 62 | 41 | 0.0 | 4.0 | 0.00 | 0.00 | 0.00 | 53 | 1007.1 |
| 20260506072315 | 62 | 218 | 1.0 | 3.0 | 0.00 | 0.00 | 0.00 | 52 | 1006.9 |
| 20260506071813 | 62 | 346 | 3.0 | 8.0 | 0.00 | 0.00 | 0.00 | 52 | 1007.0 |
| 20260506071311 | 62 | 49 | 2.0 | 4.0 | 0.00 | 0.00 | 0.00 | 52 | 1007.0 |
| 20260506070808 | 63 | 239 | 3.0 | 4.0 | 0.00 | 0.00 | 0.00 | 52 | 1007.1 |
| 20260506070305 | 62 | 145 | 1.0 | 4.0 | 0.00 | 0.00 | 0.00 | 52 | 1006.9 |
| 20260506062242 | 62 | 330 | 3.0 | 6.0 | 0.00 | 0.00 | 0.00 | 56 | 1007.4 |
| 20260506061737 | 62 | 298 | 2.0 | 3.0 | 0.00 | 0.00 | 0.00 | 56 | 1007.6 |
| 20260506061235 | 62 | 18 | 1.0 | 3.0 | 0.00 | 0.00 | 0.00 | 57 | 1007.8 |
| 20260506060733 | 62 | 50 | 1.0 | 2.0 | 0.00 | 0.00 | 0.00 | 58 | 1007.8 |
| 20260506060230 | 62 | 278 | 1.0 | 2.0 | 0.00 | 0.00 | 0.00 | 59 | 1007.9 |
| 20260506051202 | 59 | 289 | 0.0 | 0.0 | 0.00 | 0.00 | 0.00 | 73 | 1008.3 |
| 20260506050701 | 59 | 269 | 0.0 | 0.0 | 0.00 | 0.00 | 0.00 | 72 | 1008.3 |
| 20260506050157 | 60 | 266 | 0.0 | 1.0 | 0.00 | 0.00 | 0.00 | 71 | 1008.4 |
| 20260506044648 | 60 | 228 | 0.0 | 0.0 | 0.00 | 0.00 | 0.00 | 70 | 1008.5 |
| 20260506044145 | 61 | 252 | 0.0 | 0.0 | 0.00 | 0.00 | 0.00 | 68 | 1008.6 |
| 20260506043642 | 61 | 277 | 0.0 | 1.0 | 0.00 | 0.00 | 0.00 | 68 | 1008.6 |
| 20260506043140 | 61 | 240 | 0.0 | 0.0 | 0.00 | 0.00 | 0.00 | 68 | 1008.3 |
| 20260506042639 | 61 | 264 | 0.0 | 0.0 | 0.00 | 0.00 | 0.00 | 68 | 1008.5 |
| 20260506042137 | 61 | 270 | 0.0 | 0.0 | 0.00 | 0.00 | 0.00 | 67 | 1008.4 |
| 20260506041635 | 61 | 275 | 0.0 | 0.0 | 0.00 | 0.00 | 0.00 | 68 | 1008.5 |
| 20260506041131 | 62 | 171 | 1.0 | 1.0 | 0.00 | 0.00 | 0.00 | 67 | 1008.3 |
| 20260506040629 | 62 | 356 | 0.0 | 1.0 | 0.00 | 0.00 | 0.00 | 66 | 1008.5 |
| 20260506040126 | 62 | 330 | 1.0 | 2.0 | 0.00 | 0.00 | 0.00 | 66 | 1008.7 |
| 20260506035622 | 62 | 24 | 0.0 | 1.0 | 0.00 | 0.09 | 0.09 | 66 | 1008.6 |
| 20260506035119 | 62 | 358 | 0.0 | 1.0 | 0.00 | 0.09 | 0.09 | 66 | 1008.7 |
| 20260506034616 | 62 | 230 | 0.0 | 1.0 | 0.00 | 0.09 | 0.09 | 66 | 1008.9 |
| 20260506034113 | 62 | 230 | 1.0 | 2.0 | 0.00 | 0.09 | 0.09 | 65 | 1008.6 |
| 20260506033611 | 62 | 263 | 0.0 | 2.0 | 0.00 | 0.09 | 0.09 | 66 | 1008.7 |
| 20260506033108 | 61 | 276 | 1.0 | 2.0 | 0.00 | 0.09 | 0.09 | 67 | 1008.6 |
| 20260506032605 | 61 | 87 | 0.0 | 0.0 | 0.00 | 0.09 | 0.09 | 68 | 1008.8 |
| 20260506032102 | 61 | 283 | 0.0 | 2.0 | 0.00 | 0.09 | 0.09 | 68 | 1008.7 |
| 20260506031559 | 60 | 304 | 1.0 | 1.0 | 0.00 | 0.09 | 0.09 | 68 | 1008.8 |
| 20260506031056 | 60 | 47 | 0.0 | 0.0 | 0.00 | 0.09 | 0.09 | 69 | 1008.7 |
| 20260506030554 | 60 | 284 | 0.0 | 1.0 | 0.00 | 0.09 | 0.09 | 68 | 1008.8 |
| 20260506030051 | 60 | 268 | 0.0 | 1.0 | 0.00 | 0.09 | 0.09 | 68 | 1008.8 |
| 20260506025548 | 60 | 210 | 0.0 | 0.0 | 0.00 | 0.09 | 0.09 | 68 | 1008.9 |
| 20260506025044 | 61 | 228 | 0.0 | 1.0 | 0.00 | 0.09 | 0.09 | 67 | 1008.9 |
| 20260506024541 | 61 | 253 | 0.0 | 1.0 | 0.00 | 0.09 | 0.09 | 66 | 1008.8 |
| 20260506024037 | 62 | 272 | 0.0 | 2.0 | 0.00 | 0.09 | 0.09 | 66 | 1008.8 |
| 20260506023534 | 62 | 264 | 0.0 | 0.0 | 0.00 | 0.09 | 0.09 | 65 | 1008.8 |
| 20260506023031 | 62 | 213 | 0.0 | 0.0 | 0.00 | 0.09 | 0.09 | 65 | 1008.9 |
| 20260506022529 | 62 | 18 | 1.0 | 1.0 | 0.00 | 0.09 | 0.09 | 65 | 1008.9 |
| 20260506022026 | 62 | 300 | 0.0 | 0.0 | 0.00 | 0.09 | 0.09 | 65 | 1009.0 |
| 20260506021523 | 62 | 224 | 0.0 | 0.0 | 0.00 | 0.09 | 0.09 | 64 | 1009.1 |
| 20260506021020 | 62 | 98 | 1.0 | 1.0 | 0.00 | 0.09 | 0.09 | 64 | 1009.0 |
| 20260506020518 | 62 | 312 | 2.0 | 2.0 | 0.00 | 0.09 | 0.09 | 64 | 1008.8 |
| 20260506020015 | 63 | 105 | 0.0 | 1.0 | 0.00 | 0.09 | 0.09 | 64 | 1008.9 |
| 20260506015513 | 63 | 24 | 2.0 | 3.0 | 0.00 | 0.09 | 0.09 | 63 | 1008.8 |
| 20260506015009 | 63 | 6 | 0.0 | 1.0 | 0.00 | 0.09 | 0.09 | 62 | 1008.8 |
| 20260506014507 | 64 | 28 | 2.0 | 3.0 | 0.00 | 0.09 | 0.09 | 61 | 1008.7 |
| 20260506014003 | 64 | 234 | 0.0 | 1.0 | 0.00 | 0.09 | 0.09 | 61 | 1008.8 |
| 20260506013501 | 64 | 334 | 1.0 | 2.0 | 0.00 | 0.09 | 0.09 | 61 | 1008.7 |
| 20260506012957 | 64 | 91 | 2.0 | 3.0 | 0.00 | 0.09 | 0.09 | 59 | 1008.8 |
| 20260506012453 | 65 | 263 | 0.0 | 1.0 | 0.00 | 0.09 | 0.09 | 59 | 1009.0 |
| 20260506011950 | 65 | 180 | 0.0 | 7.0 | 0.00 | 0.09 | 0.09 | 58 | 1008.8 |
| 20260506011448 | 65 | 97 | 1.0 | 1.0 | 0.00 | 0.09 | 0.09 | 58 | 1008.7 |
| 20260506010944 | 65 | 298 | 1.0 | 2.0 | 0.00 | 0.09 | 0.09 | 57 | 1008.6 |
| 20260506010443 | 65 | 186 | 1.0 | 3.0 | 0.00 | 0.09 | 0.09 | 58 | 1008.7 |
| 20260506005939 | 65 | 349 | 0.0 | 3.0 | 0.00 | 0.09 | 0.09 | 58 | 1008.5 |
| 20260506005437 | 65 | 207 | 0.0 | 2.0 | 0.00 | 0.09 | 0.09 | 58 | 1008.5 |
| 20260506004932 | 65 | 288 | 1.0 | 1.0 | 0.00 | 0.09 | 0.09 | 57 | 1008.4 |
| 20260506004430 | 65 | 319 | 0.0 | 2.0 | 0.00 | 0.09 | 0.09 | 57 | 1008.4 |
| 20260506003926 | 65 | 2 | 0.0 | 1.0 | 0.00 | 0.09 | 0.09 | 58 | 1008.3 |
| 20260506003423 | 65 | 266 | 0.0 | 1.0 | 0.00 | 0.09 | 0.09 | 57 | 1008.2 |
| 20260506002919 | 65 | 311 | 0.0 | 0.0 | 0.00 | 0.09 | 0.09 | 57 | 1008.3 |
| 20260506002415 | 65 | 359 | 0.0 | 2.0 | 0.00 | 0.09 | 0.09 | 56 | 1008.2 |
| 20260506001910 | 65 | 308 | 0.0 | 0.0 | 0.00 | 0.09 | 0.09 | 56 | 1008.2 |
| 20260506001408 | 66 | 274 | 0.0 | 2.0 | 0.00 | 0.09 | 0.09 | 55 | 1008.1 |
| 20260506000905 | 66 | 260 | 0.0 | 0.0 | 0.00 | 0.09 | 0.09 | 55 | 1008.1 |
| 20260506000403 | 66 | 315 | 1.0 | 3.0 | 0.00 | 0.09 | 0.09 | 54 | 1008.1 |
| 20260505235859 | 67 | 210 | 0.0 | 1.0 | 0.00 | 0.09 | 0.09 | 54 | 1008.1 |
| 20260505235358 | 67 | 131 | 3.0 | 3.0 | 0.00 | 0.09 | 0.09 | 53 | 1008.1 |
| 20260505234854 | 67 | 125 | 0.0 | 3.0 | 0.00 | 0.09 | 0.09 | 53 | 1008.0 |
| 20260505234352 | 67 | 110 | 2.0 | 2.0 | 0.00 | 0.09 | 0.09 | 53 | 1008.3 |
| 20260505233848 | 67 | 199 | 0.0 | 1.0 | 0.00 | 0.09 | 0.09 | 52 | 1008.0 |
| 20260505233346 | 68 | 132 | 0.0 | 3.0 | 0.00 | 0.09 | 0.09 | 52 | 1008.0 |
| 20260505232843 | 68 | 85 | 2.0 | 4.0 | 0.00 | 0.09 | 0.09 | 51 | 1008.0 |
| 20260505232341 | 68 | 354 | 0.0 | 1.0 | 0.00 | 0.09 | 0.09 | 51 | 1007.9 |
| 20260505231837 | 68 | 116 | 4.0 | 6.0 | 0.00 | 0.09 | 0.09 | 51 | 1008.0 |
| 20260505231335 | 68 | 119 | 3.0 | 6.0 | 0.00 | 0.09 | 0.09 | 51 | 1007.8 |
| 20260505230833 | 69 | 87 | 2.0 | 8.0 | 0.00 | 0.09 | 0.09 | 50 | 1007.9 |
| 20260505230330 | 69 | 105 | 7.0 | 8.0 | 0.00 | 0.09 | 0.09 | 49 | 1007.9 |
| 20260505225826 | 69 | 93 | 1.0 | 8.0 | 0.00 | 0.09 | 0.09 | 50 | 1007.9 |
| 20260505225324 | 69 | 75 | 4.0 | 6.0 | 0.00 | 0.09 | 0.09 | 49 | 1007.8 |
| 20260505224819 | 69 | 147 | 5.0 | 9.0 | 0.00 | 0.09 | 0.09 | 49 | 1007.9 |
| 20260505224317 | 70 | 167 | 0.0 | 3.0 | 0.00 | 0.09 | 0.09 | 48 | 1007.6 |
| 20260505223814 | 70 | 37 | 1.0 | 3.0 | 0.00 | 0.09 | 0.09 | 48 | 1007.9 |
| 20260505223311 | 70 | 147 | 2.0 | 6.0 | 0.00 | 0.09 | 0.09 | 48 | 1007.6 |
| 20260505222806 | 70 | 97 | 2.0 | 4.0 | 0.00 | 0.09 | 0.09 | 48 | 1007.8 |
| 20260505222305 | 70 | 15 | 3.0 | 8.0 | 0.00 | 0.09 | 0.09 | 46 | 1007.8 |
| 20260505221800 | 70 | 8 | 4.0 | 6.0 | 0.00 | 0.09 | 0.09 | 46 | 1007.5 |
| 20260505221257 | 70 | 92 | 2.0 | 4.0 | 0.00 | 0.09 | 0.09 | 46 | 1007.5 |
| 20260505220754 | 71 | 102 | 1.0 | 4.0 | 0.00 | 0.09 | 0.09 | 47 | 1007.3 |
| 20260505220251 | 71 | 101 | 2.0 | 6.0 | 0.00 | 0.09 | 0.09 | 46 | 1007.2 |
| 20260505215749 | 71 | 148 | 1.0 | 7.0 | 0.00 | 0.09 | 0.09 | 45 | 1007.1 |
| 20260505215246 | 71 | 133 | 5.0 | 8.0 | 0.00 | 0.09 | 0.09 | 45 | 1007.0 |
| 20260505214744 | 71 | 109 | 4.0 | 4.0 | 0.00 | 0.09 | 0.09 | 45 | 1007.3 |
| 20260505214241 | 71 | 93 | 6.0 | 10.0 | 0.00 | 0.09 | 0.09 | 45 | 1007.2 |
| 20260505213738 | 71 | 48 | 3.0 | 13.0 | 0.00 | 0.09 | 0.09 | 45 | 1007.1 |
| 20260505213236 | 71 | 102 | 5.0 | 8.0 | 0.00 | 0.09 | 0.09 | 44 | 1007.0 |
| 20260505212731 | 72 | 123 | 1.0 | 8.0 | 0.00 | 0.09 | 0.09 | 43 | 1006.8 |
| 20260505212229 | 71 | 133 | 5.0 | 10.0 | 0.00 | 0.09 | 0.09 | 44 | 1007.0 |
| 20260505211726 | 72 | 94 | 5.0 | 17.0 | 0.00 | 0.09 | 0.09 | 44 | 1007.1 |
| 20260505211223 | 72 | 353 | 3.0 | 11.0 | 0.00 | 0.09 | 0.09 | 45 | 1006.9 |
| 20260505210719 | 72 | 352 | 2.0 | 9.0 | 0.00 | 0.09 | 0.09 | 45 | 1006.8 |
| 20260505210216 | 72 | 31 | 4.0 | 7.0 | 0.00 | 0.09 | 0.09 | 45 | 1006.8 |
| 20260505205714 | 72 | 336 | 5.0 | 6.0 | 0.00 | 0.09 | 0.09 | 45 | 1006.8 |
| 20260505205212 | 73 | 346 | 3.0 | 7.0 | 0.00 | 0.09 | 0.09 | 45 | 1006.7 |
| 20260505204708 | 73 | 262 | 1.0 | 10.0 | 0.00 | 0.09 | 0.09 | 44 | 1006.8 |
| 20260505204206 | 74 | 272 | 4.0 | 6.0 | 0.00 | 0.09 | 0.09 | 44 | 1006.8 |
| 20260505203703 | 73 | 285 | 2.0 | 11.0 | 0.00 | 0.09 | 0.09 | 44 | 1006.7 |
| 20260505203200 | 74 | 172 | 9.0 | 13.0 | 0.00 | 0.09 | 0.09 | 44 | 1006.9 |
| 20260505202655 | 73 | 347 | 4.0 | 16.0 | 0.00 | 0.09 | 0.09 | 48 | 1006.8 |
| 20260505202152 | 74 | 352 | 2.0 | 11.0 | 0.00 | 0.09 | 0.09 | 45 | 1006.7 |
| 20260505201648 | 72 | 31 | 3.0 | 8.0 | 0.00 | 0.09 | 0.09 | 47 | 1006.9 |
| 20260505201146 | 72 | 201 | 2.0 | 7.0 | 0.00 | 0.09 | 0.09 | 46 | 1006.8 |
| 20260505200644 | 72 | 41 | 1.0 | 7.0 | 0.00 | 0.09 | 0.09 | 46 | 1006.6 |
| 20260505200141 | 72 | 286 | 1.0 | 7.0 | 0.00 | 0.09 | 0.09 | 47 | 1006.9 |
| 20260505195637 | 72 | 74 | 2.0 | 10.0 | 0.00 | 0.09 | 0.09 | 49 | 1006.8 |
| 20260505195134 | 72 | 99 | 2.0 | 9.0 | 0.00 | 0.09 | 0.09 | 47 | 1006.7 |
| 20260505194631 | 72 | 64 | 4.0 | 7.0 | 0.00 | 0.09 | 0.09 | 47 | 1006.7 |
| 20260505194127 | 72 | 13 | 5.0 | 11.0 | 0.00 | 0.09 | 0.09 | 48 | 1006.7 |
| 20260505193624 | 71 | 41 | 5.0 | 22.0 | 0.00 | 0.09 | 0.09 | 48 | 1006.6 |
| 20260505193121 | 71 | 355 | 5.0 | 9.0 | 0.00 | 0.09 | 0.09 | 47 | 1006.5 |
| 20260505192620 | 72 | 265 | 2.0 | 16.0 | 0.00 | 0.09 | 0.09 | 48 | 1006.5 |
| 20260505192117 | 72 | 110 | 6.0 | 10.0 | 0.00 | 0.09 | 0.09 | 45 | 1006.5 |
| 20260505191615 | 72 | 336 | 2.0 | 14.0 | 0.00 | 0.09 | 0.09 | 46 | 1006.4 |
| 20260505191113 | 72 | 338 | 9.0 | 15.0 | 0.00 | 0.09 | 0.09 | 46 | 1006.4 |
| 20260505190608 | 72 | 245 | 3.0 | 15.0 | 0.00 | 0.09 | 0.09 | 46 | 1006.4 |
| 20260505190103 | 74 | 161 | 3.0 | 10.0 | 0.00 | 0.09 | 0.09 | 43 | 1006.4 |
| 20260505185600 | 74 | 80 | 4.0 | 15.0 | 0.00 | 0.09 | 0.09 | 42 | 1006.4 |
| 20260505185057 | 74 | 96 | 2.0 | 9.0 | 0.00 | 0.09 | 0.09 | 42 | 1006.6 |
| 20260505184554 | 73 | 0 | 2.0 | 3.0 | 0.00 | 0.09 | 0.09 | 46 | 1006.9 |
| 20260505184050 | 72 | 19 | 6.0 | 14.0 | 0.00 | 0.09 | 0.09 | 44 | 1006.9 |
| 20260505183547 | 73 | 24 | 4.0 | 7.0 | 0.00 | 0.09 | 0.09 | 45 | 1006.9 |
| 20260505183045 | 73 | 178 | 6.0 | 21.0 | 0.00 | 0.09 | 0.09 | 45 | 1007.2 |
| 20260505182541 | 74 | 45 | 7.0 | 10.0 | 0.00 | 0.09 | 0.09 | 45 | 1007.1 |
| 20260505182038 | 73 | 289 | 4.0 | 14.0 | 0.00 | 0.09 | 0.09 | 46 | 1007.2 |
| 20260505181534 | 72 | 258 | 5.0 | 10.0 | 0.00 | 0.09 | 0.09 | 46 | 1007.5 |
| 20260505181032 | 74 | 105 | 8.0 | 13.0 | 0.00 | 0.09 | 0.09 | 46 | 1007.3 |
| 20260505180527 | 73 | 75 | 2.0 | 8.0 | 0.00 | 0.09 | 0.09 | 47 | 1007.3 |
| 20260505180026 | 72 | 344 | 3.0 | 15.0 | 0.00 | 0.09 | 0.09 | 48 | 1007.5 |
| 20260505175520 | 72 | 108 | 7.0 | 9.0 | 0.00 | 0.09 | 0.09 | 48 | 1007.8 |
| 20260505175018 | 72 | 323 | 7.0 | 18.0 | 0.00 | 0.09 | 0.09 | 48 | 1007.4 |
| 20260505174515 | 72 | 259 | 9.0 | 15.0 | 0.00 | 0.09 | 0.09 | 49 | 1007.8 |
| 20260505174011 | 73 | 350 | 6.0 | 13.0 | 0.00 | 0.09 | 0.09 | 48 | 1007.8 |
| 20260505173507 | 71 | 116 | 6.0 | 13.0 | 0.00 | 0.09 | 0.09 | 48 | 1007.6 |
| 20260505173004 | 71 | 98 | 4.0 | 13.0 | 0.00 | 0.09 | 0.09 | 51 | 1008.0 |
| 20260505172502 | 71 | 18 | 6.0 | 10.0 | 0.00 | 0.09 | 0.09 | 50 | 1007.9 |
| 20260505172002 | 72 | 324 | 5.0 | 10.0 | 0.00 | 0.09 | 0.09 | 49 | 1007.8 |
| 20260505171458 | 72 | 348 | 5.0 | 11.0 | 0.00 | 0.09 | 0.09 | 49 | 1007.8 |
| 20260505170955 | 72 | 293 | 2.0 | 10.0 | 0.00 | 0.09 | 0.09 | 50 | 1007.8 |
| 20260505170452 | 73 | 71 | 4.0 | 11.0 | 0.00 | 0.09 | 0.09 | 49 | 1007.5 |
| 20260505165947 | 73 | 141 | 4.0 | 8.0 | 0.00 | 0.09 | 0.09 | 49 | 1007.2 |
| 20260505165443 | 73 | 44 | 6.0 | 9.0 | 0.00 | 0.09 | 0.09 | 50 | 1007.3 |
| 20260505164939 | 71 | 20 | 1.0 | 9.0 | 0.00 | 0.09 | 0.09 | 52 | 1007.8 |
| 20260505164436 | 72 | 180 | 4.0 | 10.0 | 0.00 | 0.09 | 0.09 | 52 | 1007.9 |
| 20260505163934 | 71 | 345 | 4.0 | 8.0 | 0.00 | 0.09 | 0.09 | 51 | 1008.1 |
| 20260505163433 | 71 | 317 | 3.0 | 14.0 | 0.00 | 0.09 | 0.09 | 53 | 1008.2 |
| 20260505162931 | 71 | 44 | 6.0 | 9.0 | 0.00 | 0.09 | 0.09 | 52 | 1008.3 |
| 20260505162427 | 71 | 342 | 5.0 | 8.0 | 0.00 | 0.09 | 0.09 | 52 | 1008.2 |
| 20260505161924 | 70 | 64 | 5.0 | 10.0 | 0.00 | 0.09 | 0.09 | 53 | 1008.1 |
| 20260505161420 | 70 | 106 | 3.0 | 13.0 | 0.00 | 0.09 | 0.09 | 55 | 1008.4 |
| 20260505160918 | 70 | 30 | 6.0 | 13.0 | 0.00 | 0.09 | 0.09 | 55 | 1008.5 |
| 20260505160416 | 70 | 305 | 2.0 | 11.0 | 0.00 | 0.09 | 0.09 | 54 | 1008.3 |
| 20260505153355 | 69 | 102 | 3.0 | 8.0 | 0.00 | 0.09 | 0.09 | 55 | 1008.7 |
| 20260505152852 | 69 | 150 | 2.0 | 11.0 | 0.00 | 0.09 | 0.09 | 58 | 1008.5 |
| 20260505152349 | 69 | 107 | 5.0 | 13.0 | 0.00 | 0.09 | 0.09 | 56 | 1008.5 |
| 20260505151849 | 70 | 37 | 3.0 | 21.0 | 0.00 | 0.09 | 0.09 | 55 | 1008.7 |
| 20260505151346 | 68 | 352 | 1.0 | 23.0 | 0.00 | 0.09 | 0.09 | 59 | 1008.4 |
| 20260505150843 | 68 | 301 | 1.0 | 7.0 | 0.00 | 0.09 | 0.09 | 59 | 1008.5 |
| 20260505150341 | 68 | 266 | 4.0 | 6.0 | 0.00 | 0.09 | 0.09 | 56 | 1008.8 |
| 20260505140310 | 65 | 311 | 2.0 | 8.0 | 0.00 | 0.09 | 0.09 | 66 | 1008.5 |
| 20260505130234 | 55 | 280 | 0.0 | 4.0 | 0.07 | 0.09 | 0.09 | 88 | 1008.7 |
| 20260505124724 | 55 | 243 | 6.0 | 17.0 | 0.31 | 0.07 | 0.07 | 86 | 1009.9 |
| 20260505124221 | 57 | 71 | 4.0 | 14.0 | 0.07 | 0.03 | 0.03 | 81 | 1009.7 |
| 20260505123717 | 58 | 84 | 7.0 | 15.0 | 0.05 | 0.02 | 0.02 | 76 | 1009.5 |
| 20260505123214 | 62 | 31 | 4.0 | 8.0 | 0.05 | 0.02 | 0.02 | 70 | 1009.2 |
| 20260505122710 | 63 | 105 | 1.0 | 8.0 | 0.00 | 0.01 | 0.01 | 59 | 1008.9 |
| 20260505122208 | 63 | 140 | 3.0 | 6.0 | 0.00 | 0.01 | 0.01 | 59 | 1009.0 |
| 20260505121704 | 63 | 117 | 1.0 | 3.0 | 0.00 | 0.01 | 0.01 | 59 | 1009.0 |
| 20260505121201 | 63 | 211 | 1.0 | 4.0 | 0.00 | 0.01 | 0.01 | 61 | 1009.0 |
| 20260505120657 | 63 | 293 | 2.0 | 4.0 | 0.00 | 0.01 | 0.01 | 60 | 1009.1 |
| 20260505120153 | 63 | 50 | 1.0 | 6.0 | 0.00 | 0.01 | 0.01 | 60 | 1009.0 |
| 20260505115647 | 63 | 324 | 1.0 | 6.0 | 0.00 | 0.01 | 0.01 | 59 | 1009.0 |
| 20260505115145 | 62 | 133 | 1.0 | 3.0 | 0.00 | 0.01 | 0.01 | 61 | 1008.8 |
| 20260505114642 | 63 | 62 | 0.0 | 3.0 | 0.00 | 0.01 | 0.01 | 62 | 1008.6 |
| 20260505114138 | 62 | 33 | 1.0 | 2.0 | 0.00 | 0.01 | 0.01 | 62 | 1008.8 |
| 20260505113634 | 61 | 319 | 2.0 | 3.0 | 0.00 | 0.01 | 0.01 | 62 | 1008.8 |
| 20260505113131 | 60 | 140 | 1.0 | 3.0 | 0.00 | 0.01 | 0.01 | 65 | 1008.9 |
| 20260505112627 | 60 | 25 | 1.0 | 4.0 | 0.00 | 0.01 | 0.01 | 66 | 1008.9 |
| 20260505112126 | 60 | 93 | 2.0 | 3.0 | 0.00 | 0.01 | 0.01 | 65 | 1008.9 |
| 20260505111625 | 59 | 348 | 0.0 | 3.0 | 0.00 | 0.01 | 0.01 | 66 | 1008.7 |
| 20260505111121 | 59 | 113 | 1.0 | 4.0 | 0.00 | 0.01 | 0.01 | 67 | 1008.8 |
| 20260505110618 | 59 | 291 | 2.0 | 4.0 | 0.00 | 0.01 | 0.01 | 67 | 1008.6 |
| 20260505110115 | 59 | 39 | 2.0 | 4.0 | 0.00 | 0.01 | 0.01 | 67 | 1008.6 |
| 20260505102051 | 57 | 73 | 6.0 | 11.0 | 0.00 | 0.01 | 0.01 | 69 | 1008.2 |
| 20260505101549 | 57 | 8 | 4.0 | 9.0 | 0.00 | 0.01 | 0.01 | 70 | 1008.2 |
| 20260505101045 | 56 | 298 | 2.0 | 4.0 | 0.00 | 0.01 | 0.01 | 71 | 1008.2 |
| 20260505100542 | 57 | 79 | 1.0 | 1.0 | 0.00 | 0.01 | 0.01 | 70 | 1008.0 |
| 20260505100039 | 57 | 42 | 1.0 | 3.0 | 0.00 | 0.01 | 0.01 | 70 | 1008.2 |
| 20260505095535 | 57 | 24 | 5.0 | 10.0 | 0.00 | 0.01 | 0.01 | 69 | 1008.2 |
| 20260505095031 | 57 | 309 | 1.0 | 4.0 | 0.00 | 0.01 | 0.01 | 70 | 1008.3 |
| 20260505094528 | 57 | 8 | 2.0 | 4.0 | 0.00 | 0.01 | 0.01 | 69 | 1008.2 |
| 20260505094024 | 57 | 31 | 1.0 | 2.0 | 0.00 | 0.01 | 0.01 | 69 | 1007.8 |
| 20260505093521 | 57 | 83 | 3.0 | 3.0 | 0.00 | 0.01 | 0.01 | 69 | 1008.2 |
| 20260505093018 | 57 | 271 | 0.0 | 3.0 | 0.00 | 0.01 | 0.01 | 70 | 1008.1 |
| 20260505092516 | 57 | 310 | 3.0 | 8.0 | 0.00 | 0.01 | 0.01 | 69 | 1008.0 |
| 20260505092014 | 57 | 33 | 1.0 | 3.0 | 0.00 | 0.01 | 0.01 | 68 | 1008.0 |